Location: Bismarck
(46.7731°N, 100.8200°W)
Time: 22:17:40
(UTC-05:00)

ISS - Visible Passes

Search period start: 24 May 2016 00:00
Search period end: 03 June 2016 00:00
Orbit: 402 x 404 km, 51.6° (Epoch: 24 May)

Date Brightness Start Highest point End Pass type
(mag) Time Alt. Az. Time Alt. Az. Time Alt. Az.
24 May -0.6 00:47:29 11° ENE 00:47:29 11° ENE 00:47:41 10° ENE visible
24 May -2.0 02:20:03 31° NW 02:21:02 40° NNW 02:24:09 10° ENE visible
24 May -1.7 03:54:53 10° WNW 03:57:56 35° N 04:01:00 10° ENE visible
25 May -2.6 01:28:19 52° N 01:28:19 52° N 01:31:24 10° ENE visible
25 May -1.5 03:02:02 10° WNW 03:05:03 33° N 03:08:03 10° ENE visible
25 May -2.8 04:38:36 10° WNW 04:41:51 62° NNE 04:45:06 10° ESE visible
26 May -3.2 00:35:40 69° NNE 00:35:40 69° NNE 00:38:39 10° ENE visible
26 May -1.6 02:09:07 10° WNW 02:12:08 34° N 02:15:10 10° ENE visible
26 May -2.2 03:45:52 10° WNW 03:49:02 45° NNE 03:52:12 10° E visible
26 May -1.3 22:05:37 10° SSE 22:06:43 11° SE 22:07:50 10° ESE visible
26 May -3.5 23:39:23 10° SW 23:42:38 67° SSE 23:45:53 10° ENE visible
27 May -1.9 01:16:08 10° W 01:19:14 38° N 01:22:20 10° ENE visible
27 May -1.7 02:53:04 10° WNW 02:56:09 37° N 02:59:13 10° E visible
27 May -3.5 04:29:32 10° WNW 04:32:48 76° SSW 04:36:03 10° ESE visible
27 May -2.9 22:46:52 10° SW 22:49:56 39° SE 22:53:01 10° ENE visible
28 May -2.3 00:23:10 10° W 00:26:21 48° NNW 00:29:33 10° ENE visible
28 May -1.5 02:00:13 10° WNW 02:03:14 33° N 02:06:15 10° ENE visible
28 May -3.1 03:36:46 10° WNW 03:40:02 70° NNE 03:43:17 10° ESE visible
28 May -2.1 05:13:36 10° W 05:16:13 22° SW 05:18:50 10° SSE visible
28 May -3.0 23:30:16 10° WSW 23:33:31 68° NNW 23:36:47 10° ENE visible
29 May -1.5 01:07:17 10° WNW 01:10:18 33° N 01:13:20 10° ENE visible
29 May -2.4 02:44:00 10° WNW 02:47:11 49° NNE 02:50:22 10° E visible
29 May -2.9 04:20:32 10° WNW 04:23:36 38° SW 04:26:39 10° SSE visible
29 May -3.4 22:37:28 10° WSW 22:40:44 78° SSE 22:44:00 10° ENE visible
30 May -1.7 00:14:19 10° WNW 00:17:23 36° N 00:20:28 10° ENE visible
30 May -1.9 01:51:11 10° WNW 01:54:17 38° N 01:57:23 10° E visible
30 May -3.5 03:27:39 10° WNW 03:30:53 65° SSW 03:34:07 10° SE visible
30 May -1.3 05:05:53 10° WSW 05:06:47 11° SW 05:07:41 10° SSW visible
30 May -2.1 23:21:20 10° W 23:24:28 44° NNW 23:27:38 10° ENE visible
31 May -1.6 00:58:20 10° WNW 01:01:22 34° N 01:04:24 10° ENE visible
31 May -3.3 02:34:50 10° WNW 02:38:07 79° NNE 02:38:20 73° ENE visible
31 May -2.7 22:28:21 10° WSW 22:31:37 61° NNW 22:34:51 10° ENE visible
01 Jun -1.5 00:05:25 10° WNW 00:08:25 33° N 00:11:26 10° ENE visible
01 Jun -2.6 01:42:03 10° WNW 01:45:17 54° NNE 01:45:59 43° ENE visible
01 Jun -1.6 23:12:25 10° WNW 23:15:29 35° N 23:18:31 10° ENE visible
02 Jun -2.1 00:49:15 10° WNW 00:52:23 41° NNE 00:54:18 20° ENE visible
02 Jun -1.3 02:25:42 10° WNW 02:26:52 20° WNW 02:26:52 20° WNW visible
02 Jun -1.9 22:19:24 10° W 22:22:32 41° NNW 22:25:40 10° ENE visible
